Regional Weather Roundup
Issued by NWS

Home | Current Version | Previous Version | Graphics & Text | Print | Product List | Glossary On
Versions: 1 2 3 4 5 6 7 8 9 10 11 12 13 14 15 16 17 18 19 20 21 22 23 24 25 26 27 28 29 30 31 32 33 34 35 36 37 38 39 40 41 42 43 44 45 46 47 48 49 50
000
ASUS43 KFSD 232310
RWRSD

WEATHER ROUNDUP FOR SOUTH DAKOTA
NATIONAL WEATHER SERVICE SIOUX FALLS SD
600 PM CDT TUE AUG 23 2016

NOTE: "FAIR" INDICATES FEW OR NO CLOUDS BELOW 12,000 FEET WITH NO
SIGNIFICANT WEATHER AND/OR OBSTRUCTIONS TO VISIBILITY.


SDZ001>005-009-010-012>017-240000-
NORTHWEST AND NORTH CENTRAL SOUTH DAKOTA

CITY           SKY/WX    TMP DP  RH WIND       PRES   REMARKS
BUFFALO          N/A     80  31  16 NW24G30   29.90S
FAITH            N/A     81  34  18 NW20      29.91R
MOBRIDGE       SUNNY     85  40  20 N20G29    29.79R
$$

SDZ012>016-024>037-041>051-057-063-072>074-240000-
SOUTHWEST AND SOUTH CENTRAL SOUTH DAKOTA

CITY           SKY/WX    TMP DP  RH WIND       PRES   REMARKS
RAPID CTY ARPT PTSUNNY   80  32  17 N20G29    29.97R
PIERRE         SUNNY     84  49  29 N23G29    29.80R
CUSTER         SUNNY     76  26  15 VRB7      30.08R
ELLSWORTH AFB  SUNNY     79  32  18 N18G25    29.97R
PHILIP         SUNNY     85  32  15 N20G26    29.88R
PINE RIDGE     MOSUNNY   82  32  16 N15G22    29.97R
WINNER         FAIR      87  54  32 N18       29.83R
$$

SDZ004>011-016>023-039-040-240000-
NORTHEAST SOUTH DAKOTA

CITY           SKY/WX    TMP DP  RH WIND       PRES   REMARKS
ABERDEEN       PTSUNNY   83  69  62 SE16G22   29.72R
WATERTOWN      CLOUDY    77  67  71 S14G24    29.79F
BROOKINGS      CLOUDY    72  67  84 S8        29.82F
SISSETON         N/A     82  66  58 S18G28    29.75S
$$

SDZ017-020-022-023-036>040-048>070-240000-
SOUTHEAST SOUTH DAKOTA

CITY           SKY/WX    TMP DP  RH WIND       PRES   REMARKS
SIOUX FALLS    CLOUDY    73  67  81 S10       29.82F
HURON          SUNNY     82  70  66 S14G23    29.74S
CHAMBERLAIN    SUNNY     87  61  40 NW13G22   29.77R
MITCHELL       SUNNY     82  70  66 S13       29.77R
YANKTON        SUNNY     79  70  73 E10       29.78F
$$

ABBREVIATIONS USED IN REMARKS
   TC - TEMPERATURE IN CELSIUS
  WCI - WIND CHILL INDEX
   HX - HEAT INDEX
  VSB - VISIBILITY




USA.gov is the U.S. government's official web portal to all federal, state and local government web resources and services.